HISPASAT 30W-6 (43228 NORAD) Tracking and Keplerian Element Data

This shows tracking and keplerian element data for the satellite.

Feedback or suggestion? Click here.




ElementValue
Catalog43228
NameHISPASAT 30W-6
Epoch Orbit180
Epoch Day228.18203058
Epoch Year2018
RAAN59.9018
Inclination0.0365
Eccentricity0.0003993
Argument of Perigee59.6259
Mean Anonmoly240.4971
Mean Motion1.00273464
Decay Rate-2.4E-06
L11 43228U 18023A 18228.18203058 -.00000240 00000-0 00000+0 0 9997
L22 43228 0.0365 59.9018 0003993 59.6259 240.4971 1.00273464 1800

Live tracking and technical data element details for HISPASAT 30W-6 (NORAD 43228). HISPASAT 30W-6 can be tracked NOW for your location showing map with azimuth and elevation plus other details from your city location.

Track the satellite on the map from your city or location and see movement details for azimuth, elevation, latitude, longitude, range, height, and movement on the map or in text.







IsCatalogInMostPopularTable: catalog: 43228, numindb: 146
Update: records affected: 1



GetName: 43228 HISPASAT 30W-6

Hit Count: updated at: Fri, 17 Aug 2018 13:20:35 GMT